K5VP Weather Reports


Display with metric or nautical units.
time (UTC)temp
F
wind
direction
speed
MPH
gust
MPH
rain 1hr
in
rain 24hr
in
rain mn
in
humidity
%
barometer
mb
20260508213642 77 116 0.0 0.0 0.00 0.00 0.00 39 1012.1
20260508213025 77 186 0.0 0.0 0.00 0.00 0.00 38 1012.2
20260508212413 76 157 0.0 0.0 0.00 0.00 0.00 37 1012.2
20260508211803 76 190 0.0 0.0 0.00 0.00 0.00 41 1012.3
20260508211131 76 191 0.0 0.0 0.00 0.00 0.00 38 1012.4
20260508210458 75 162 0.0 0.0 0.00 0.00 0.00 43 1012.5
20260508205821 75 175 0.0 0.0 0.00 0.00 0.00 40 1012.6
20260508205202 76 140 0.0 0.0 0.00 0.00 0.00 40 1012.7
20260508204554 75 185 0.0 0.0 0.00 0.00 0.00 42 1012.7
20260508203946 75 148 0.0 0.0 0.00 0.00 0.00 40 1012.8
20260508203338 75 158 0.0 0.0 0.00 0.00 0.00 40 1012.9
20260508202708 75 181 0.0 0.0 0.00 0.00 0.00 44 1013.0
20260508202031 75 241 0.0 0.0 0.00 0.00 0.00 41 1013.1
20260508201357 75 89 0.0 0.0 0.00 0.00 0.00 40 1013.3
20260508200726 74 207 0.0 0.0 0.00 0.00 0.00 41 1013.5
20260508200100 74 210 0.0 0.0 0.00 0.00 0.00 40 1013.5
20260508195431 74 217 0.0 1.0 0.00 0.00 0.00 40 1013.6
20260508194811 74 70 0.0 0.0 0.00 0.00 0.00 42 1013.7
20260508194158 74 131 0.0 0.0 0.00 0.00 0.00 40 1013.8
20260508193535 74 149 0.0 1.0 0.00 0.00 0.00 40 1013.9
20260508192915 74 148 0.0 0.0 0.00 0.00 0.00 41 1014.1
20260508192242 74 133 0.0 0.0 0.00 0.00 0.00 39 1014.1
20260508191609 74 138 0.0 2.0 0.00 0.00 0.00 39 1014.3
20260508190943 74 229 0.0 0.0 0.00 0.00 0.00 39 1014.3
20260508190310 74 113 0.0 3.0 0.00 0.00 0.00 42 1014.5
20260508185654 74 209 0.0 1.0 0.00 0.00 0.00 39 1014.5
20260508185034 74 94 0.0 1.0 0.00 0.00 0.00 41 1014.6
20260508184359 74 250 0.0 3.0 0.00 0.00 0.00 41 1014.6
20260508183747 74 245 0.0 2.0 0.00 0.00 0.00 41 1014.8
20260508183122 74 127 0.0 0.0 0.00 0.00 0.00 39 1015.0
20260508182446 74 201 0.0 2.0 0.00 0.00 0.00 40 1015.1
20260508181809 74 144 0.0 0.0 0.00 0.00 0.00 42 1015.2
20260508181202 74 136 0.0 0.0 0.00 0.00 0.00 36 1015.3
20260508180545 74 205 0.0 0.0 0.00 0.00 0.00 38 1015.3
20260508175936 74 113 0.0 0.0 0.00 0.00 0.00 39 1015.4
20260508175312 73 146 0.0 0.0 0.00 0.00 0.00 40 1015.7
20260508174650 73 58 0.0 2.0 0.00 0.00 0.00 38 1015.7
20260508174033 73 207 0.0 1.0 0.00 0.00 0.00 39 1015.8
20260508173425 73 140 0.0 1.0 0.00 0.00 0.00 40 1016.0
20260508172805 72 131 0.0 0.0 0.00 0.00 0.00 39 1016.1
20260508172143 72 255 0.0 3.0 0.00 0.00 0.00 37 1016.2
20260508171528 72 221 0.0 0.0 0.00 0.00 0.00 39 1016.2
20260508170900 72 231 0.0 0.0 0.00 0.00 0.00 39 1016.4
20260508170240 72 195 0.0 0.0 0.00 0.00 0.00 40 1016.6
20260508165607 72 200 0.0 0.0 0.00 0.00 0.00 42 1016.6
20260508164955 72 155 0.0 0.0 0.00 0.00 0.00 41 1016.7
20260508164344 71 169 0.0 0.0 0.00 0.00 0.00 42 1016.8
20260508163713 71 70 0.0 0.0 0.00 0.00 0.00 40 1016.9
20260508163045 71 218 0.0 0.0 0.00 0.00 0.00 44 1017.0
20260508162419 71 293 0.0 0.0 0.00 0.00 0.00 47 1017.1
20260508161754 70 58 0.0 1.0 0.00 0.00 0.00 46 1017.3
20260508161142 70 138 0.0 0.0 0.00 0.00 0.00 45 1017.3
20260508160525 70 230 0.0 0.0 0.00 0.00 0.00 45 1017.4
20260508155911 70 131 0.0 0.0 0.00 0.00 0.00 45 1017.4
20260508155418 70 149 0.0 0.0 0.00 0.00 0.00 47 1017.5
20260508154908 70 148 0.0 0.0 0.00 0.00 0.00 47 1017.7
20260508154357 69 113 0.0 0.0 0.00 0.00 0.00 51 1017.7
20260508153838 69 297 0.0 0.0 0.00 0.00 0.00 52 1017.8
20260508153318 68 290 0.0 0.0 0.00 0.00 0.00 51 1017.9
20260508152811 67 203 0.0 0.0 0.00 0.00 0.00 51 1018.0
20260508152309 67 148 0.0 2.0 0.00 0.00 0.00 53 1018.0
20260508151756 67 61 0.0 0.0 0.00 0.00 0.00 53 1018.0
20260508151301 67 221 0.0 0.0 0.00 0.00 0.00 52 1018.1
20260508150804 67 198 0.0 0.0 0.00 0.00 0.00 52 1018.1
20260508150250 66 139 0.0 0.0 0.00 0.00 0.00 58 1018.2
20260508145739 66 131 0.0 0.0 0.00 0.00 0.00 56 1018.2
20260508145237 66 145 0.0 0.0 0.00 0.00 0.00 59 1018.1
20260508144732 65 142 0.0 0.0 0.00 0.00 0.00 60 1018.1
20260508144212 65 141 0.0 0.0 0.00 0.00 0.00 65 1018.1
20260508143705 63 141 0.0 0.0 0.00 0.00 0.00 65 1018.2
20260508143145 62 121 0.0 0.0 0.00 0.00 0.00 68 1018.2
20260508142639 61 205 0.0 0.0 0.00 0.00 0.00 68 1018.3
20260508142130 61 206 0.0 0.0 0.00 0.00 0.00 70 1018.3
20260508141632 60 52 0.0 0.0 0.00 0.00 0.00 72 1018.4
20260508141135 60 160 0.0 0.0 0.00 0.00 0.00 71 1018.5
20260508140636 59 161 0.0 0.0 0.00 0.00 0.00 71 1018.6
20260508140134 59 160 0.0 0.0 0.00 0.00 0.00 72 1018.6
20260508135641 59 161 0.0 0.0 0.00 0.00 0.00 71 1018.7
20260508135126 59 161 0.0 0.0 0.00 0.00 0.00 72 1018.6
20260508134612 58 160 0.0 0.0 0.00 0.00 0.00 73 1018.6
20260508134105 58 161 0.0 0.0 0.00 0.00 0.00 75 1018.8
20260508133602 57 160 0.0 0.0 0.00 0.00 0.00 78 1018.7
20260508133104 56 160 0.0 0.0 0.00 0.00 0.00 81 1018.8
20260508132608 55 160 0.0 0.0 0.00 0.00 0.00 86 1018.9
20260508132115 54 161 0.0 0.0 0.00 0.00 0.00 90 1018.9
20260508131621 53 161 0.0 0.0 0.00 0.00 0.00 94 1018.9
20260508131101 51 161 0.0 0.0 0.00 0.00 0.00 96 1018.9
20260508130550 50 161 0.0 0.0 0.00 0.00 0.00 96 1018.9
20260508130052 49 161 0.0 0.0 0.00 0.00 0.00 96 1018.9
20260508125551 48 161 0.0 0.0 0.00 0.00 0.00 96 1018.9
20260508125048 47 161 0.0 0.0 0.00 0.00 0.00 96 1018.8
20260508124527 47 161 0.0 0.0 0.00 0.00 0.00 96 1018.8
20260508124014 46 161 0.0 0.0 0.00 0.00 0.00 96 1018.8
20260508123509 46 161 0.0 0.0 0.00 0.00 0.00 96 1018.8
20260508123000 45 161 0.0 0.0 0.00 0.00 0.00 96 1018.8
20260508122502 45 161 0.0 0.0 0.00 0.00 0.00 96 1018.7
20260508121942 45 161 0.0 0.0 0.00 0.00 0.00 96 1018.7
20260508121433 44 160 0.0 0.0 0.00 0.00 0.00 96 1018.7
20260508120932 44 160 0.0 0.0 0.00 0.00 0.00 96 1018.7
20260508120437 44 160 0.0 0.0 0.00 0.00 0.00 96 1018.5
20260508115929 43 159 0.0 0.0 0.00 0.00 0.00 96 1018.5
20260508115412 43 153 0.0 0.0 0.00 0.00 0.00 96 1018.4
20260508114920 43 152 0.0 0.0 0.00 0.00 0.00 96 1018.4
20260508114402 42 152 0.0 0.0 0.00 0.00 0.00 96 1018.3
20260508113849 42 152 0.0 0.0 0.00 0.00 0.00 96 1018.3
20260508113347 42 152 0.0 0.0 0.00 0.00 0.00 96 1018.3
20260508112850 42 152 0.0 0.0 0.00 0.00 0.00 96 1018.2
20260508112357 42 152 0.0 0.0 0.00 0.00 0.00 95 1018.2
20260508111840 42 151 0.0 0.0 0.00 0.00 0.00 95 1018.1
20260508111322 41 151 0.0 0.0 0.00 0.00 0.00 95 1017.9
20260508110801 41 151 0.0 0.0 0.00 0.00 0.00 95 1017.9
20260508110306 41 150 0.0 0.0 0.00 0.00 0.00 95 1017.9
20260508105809 41 146 0.0 0.0 0.00 0.00 0.00 95 1017.8
20260508105315 41 146 0.0 0.0 0.00 0.00 0.00 95 1017.8
20260508104818 42 145 0.0 0.0 0.00 0.00 0.00 95 1017.8
20260508104319 42 144 0.0 0.0 0.00 0.00 0.00 95 1017.9
20260508103800 42 143 0.0 0.0 0.00 0.00 0.00 95 1017.8
20260508103308 42 142 0.0 0.0 0.00 0.00 0.00 95 1017.9
20260508102811 42 142 0.0 0.0 0.00 0.00 0.00 95 1017.8
20260508102300 42 142 0.0 0.0 0.00 0.00 0.00 95 1017.8
20260508101757 42 142 0.0 0.0 0.00 0.00 0.00 95 1017.8
20260508101247 42 142 0.0 0.0 0.00 0.00 0.00 95 1017.6
20260508100734 42 142 0.0 0.0 0.00 0.00 0.00 95 1017.6
20260508100217 42 142 0.0 0.0 0.00 0.00 0.00 95 1017.5
20260508095723 42 142 0.0 0.0 0.00 0.00 0.00 95 1017.6
20260508095220 42 142 0.0 0.0 0.00 0.00 0.00 95 1017.6
20260508094720 42 142 0.0 0.0 0.00 0.00 0.00 95 1017.6
20260508094220 42 142 0.0 0.0 0.00 0.00 0.00 95 1017.6
20260508093706 42 142 0.0 0.0 0.00 0.00 0.00 95 1017.5
20260508093145 42 142 0.0 0.0 0.00 0.00 0.00 95 1017.5
20260508092642 43 142 0.0 0.0 0.00 0.00 0.00 95 1017.4
20260508092125 43 142 0.0 0.0 0.00 0.00 0.00 95 1017.4
20260508091610 43 142 0.0 0.0 0.00 0.00 0.00 95 1017.3
20260508091113 43 142 0.0 0.0 0.00 0.00 0.00 95 1017.2
20260508090558 44 142 0.0 0.0 0.00 0.00 0.00 95 1017.2
20260508090042 44 142 0.0 0.0 0.00 0.00 0.00 95 1017.1
20260508085528 44 142 0.0 0.0 0.00 0.00 0.00 95 1017.1
20260508085016 44 142 0.0 0.0 0.00 0.00 0.00 95 1017.1
20260508084501 43 142 0.0 0.0 0.00 0.00 0.00 95 1017.3
20260508084007 43 142 0.0 0.0 0.00 0.00 0.00 95 1017.3
20260508083506 44 142 0.0 0.0 0.00 0.00 0.00 95 1017.3
20260508083012 44 142 0.0 0.0 0.00 0.00 0.00 95 1017.3
20260508082454 44 142 0.0 0.0 0.00 0.00 0.00 95 1017.4
20260508081934 44 142 0.0 0.0 0.00 0.00 0.00 95 1017.4
20260508081415 43 142 0.0 0.0 0.00 0.00 0.00 95 1017.4
20260508080917 43 142 0.0 0.0 0.00 0.00 0.00 95 1017.4
20260508080408 44 142 0.0 0.0 0.00 0.00 0.00 95 1017.5
20260508075909 44 142 0.0 0.0 0.00 0.00 0.00 95 1017.6
20260508075400 44 142 0.0 0.0 0.00 0.00 0.00 95 1017.6
20260508074816 44 142 0.0 0.0 0.00 0.00 0.00 95 1017.7
20260508074323 44 142 0.0 0.0 0.00 0.00 0.00 95 1017.7
20260508073816 44 142 0.0 0.0 0.00 0.00 0.00 95 1017.8
20260508073315 44 142 0.0 0.0 0.00 0.00 0.00 94 1017.8
20260508072757 44 142 0.0 0.0 0.00 0.00 0.00 94 1017.9
20260508072307 44 142 0.0 0.0 0.00 0.00 0.00 94 1017.9
20260508071759 44 142 0.0 0.0 0.00 0.00 0.00 94 1017.9
20260508071246 45 142 0.0 0.0 0.00 0.00 0.00 94 1017.9
20260508070741 45 142 0.0 0.0 0.00 0.00 0.00 94 1017.9
20260508070232 45 142 0.0 0.0 0.00 0.00 0.00 94 1017.9
20260508065726 45 142 0.0 0.0 0.00 0.00 0.00 94 1018.0
20260508065214 45 142 0.0 0.0 0.00 0.00 0.00 94 1017.9
20260508064718 45 142 0.0 0.0 0.00 0.00 0.00 94 1018.0
20260508063338 46 142 0.0 0.0 0.00 0.00 0.00 94 1018.0
20260508062716 46 142 0.0 0.0 0.00 0.00 0.00 94 1018.1
20260508062043 46 142 0.0 0.0 0.00 0.00 0.00 94 1017.9
20260508061422 46 142 0.0 0.0 0.00 0.00 0.00 94 1018.0
20260508060802 46 142 0.0 0.0 0.00 0.00 0.00 94 1018.0
20260508060127 46 142 0.0 0.0 0.00 0.00 0.00 94 1018.0
20260508055509 46 142 0.0 0.0 0.00 0.00 0.00 94 1018.2
20260508054842 46 142 0.0 0.0 0.00 0.00 0.00 94 1018.3
20260508054223 46 142 0.0 0.0 0.00 0.00 0.00 94 1018.3
20260508053610 46 142 0.0 0.0 0.00 0.00 0.00 94 1018.3
20260508052935 46 142 0.0 0.0 0.00 0.00 0.00 94 1018.2
20260508052306 47 142 0.0 0.0 0.00 0.00 0.00 93 1018.3
20260508051641 47 142 0.0 0.0 0.00 0.00 0.00 93 1018.3
20260508051033 47 142 0.0 0.0 0.00 0.00 0.00 93 1018.2
20260508050416 47 142 0.0 0.0 0.00 0.00 0.00 93 1018.2
20260508045752 47 142 0.0 0.0 0.00 0.00 0.00 93 1018.1
20260508045134 47 142 0.0 0.0 0.00 0.00 0.00 93 1018.1
20260508044501 47 142 0.0 0.0 0.00 0.00 0.00 92 1018.0
20260508043849 47 142 0.0 0.0 0.00 0.00 0.00 92 1018.1
20260508043239 47 142 0.0 0.0 0.00 0.00 0.00 92 1018.1
20260508042608 47 142 0.0 0.0 0.00 0.00 0.00 92 1018.1
20260508041954 47 142 0.0 0.0 0.00 0.00 0.00 91 1018.2
20260508041337 48 142 0.0 0.0 0.00 0.00 0.00 91 1018.2
20260508040703 48 142 0.0 0.0 0.00 0.00 0.00 90 1018.1
20260508040033 48 142 0.0 0.0 0.00 0.00 0.00 90 1018.2
20260508035420 48 142 0.0 0.0 0.00 0.00 0.00 89 1018.3
20260508034809 48 142 0.0 0.0 0.00 0.00 0.00 89 1018.3
20260508034135 48 142 0.0 0.0 0.00 0.00 0.00 88 1018.4
20260508033521 48 142 0.0 0.0 0.00 0.00 0.00 86 1018.5
20260508032910 49 142 0.0 0.0 0.00 0.00 0.00 85 1018.5
20260508032241 49 142 0.0 0.0 0.00 0.00 0.00 84 1018.4
20260508031631 49 142 0.0 0.0 0.00 0.00 0.00 83 1018.3
20260508031020 50 142 0.0 0.0 0.00 0.00 0.00 81 1018.3
20260508030408 50 142 0.0 0.0 0.00 0.00 0.00 81 1018.2
20260508025737 50 142 0.0 0.0 0.00 0.00 0.00 81 1018.1
20260508025121 50 141 0.0 0.0 0.00 0.00 0.00 80 1018.0
20260508024454 50 141 0.0 0.0 0.00 0.00 0.00 79 1017.9
20260508023842 50 141 0.0 0.0 0.00 0.00 0.00 77 1017.9
20260508023218 51 141 0.0 0.0 0.00 0.00 0.00 77 1017.7
20260508022545 51 141 0.0 0.0 0.00 0.00 0.00 77 1017.8
20260508021908 51 142 0.0 0.0 0.00 0.00 0.00 76 1017.8
20260508021245 52 141 0.0 0.0 0.00 0.00 0.00 76 1017.7
20260508020616 52 141 0.0 0.0 0.00 0.00 0.00 75 1017.5
20260508015948 52 141 0.0 0.0 0.00 0.00 0.00 73 1017.5
20260508015334 53 141 0.0 0.0 0.00 0.00 0.00 71 1017.5
20260508014715 53 141 0.0 0.0 0.00 0.00 0.00 71 1017.5
20260508014043 53 141 0.0 0.0 0.00 0.00 0.00 71 1017.5
20260508013409 53 142 0.0 0.0 0.00 0.00 0.00 70 1017.5
20260508012746 54 141 0.0 0.0 0.00 0.00 0.00 69 1017.3
20260508012124 54 141 0.0 0.0 0.00 0.00 0.00 69 1017.5
20260508011503 55 141 0.0 0.0 0.00 0.00 0.00 67 1017.3
20260508010855 55 142 0.0 0.0 0.00 0.00 0.00 66 1017.3
20260508010221 56 141 0.0 0.0 0.00 0.00 0.00 65 1017.2
20260508005610 56 141 0.0 0.0 0.00 0.00 0.00 63 1017.2
20260508004957 57 141 0.0 0.0 0.00 0.00 0.00 64 1017.0
20260508004347 57 141 0.0 0.0 0.00 0.00 0.00 60 1016.9
20260508003721 58 141 0.0 0.0 0.00 0.00 0.00 59 1016.9
20260508003105 59 141 0.0 0.0 0.00 0.00 0.00 58 1016.9
20260508002437 59 141 0.0 0.0 0.00 0.00 0.00 56 1016.9
20260508001802 60 139 0.0 0.0 0.00 0.00 0.00 55 1016.8
20260508001150 61 139 0.0 0.0 0.00 0.00 0.00 55 1016.7
20260508000535 62 139 0.0 0.0 0.00 0.00 0.00 54 1016.7
20260507235902 63 134 0.0 0.0 0.00 0.00 0.00 53 1016.6
20260507235225 64 108 0.0 0.0 0.00 0.00 0.00 50 1016.5
20260507234555 65 105 0.0 0.0 0.00 0.00 0.00 48 1016.6
20260507233933 66 105 0.0 0.0 0.00 0.00 0.00 45 1016.5
20260507233323 67 103 0.0 0.0 0.00 0.00 0.00 43 1016.6
20260507232653 66 103 0.0 0.0 0.00 0.00 0.00 42 1016.5
20260507232026 65 105 0.0 0.0 0.00 0.00 0.00 43 1016.5
20260507231349 65 237 0.0 0.0 0.00 0.00 0.00 42 1016.6
20260507230717 65 238 0.0 0.0 0.00 0.00 0.00 41 1016.6
20260507230043 65 238 0.0 0.0 0.00 0.00 0.00 41 1016.7
20260507225412 65 248 0.0 0.0 0.00 0.00 0.00 41 1016.7
20260507224803 66 44 0.0 0.0 0.00 0.00 0.00 41 1016.7
20260507224153 66 343 0.0 1.0 0.00 0.01 0.00 39 1016.7
20260507223532 66 69 0.0 0.0 0.00 0.01 0.00 38 1016.7
20260507222859 67 205 0.0 0.0 0.00 0.01 0.00 38 1016.7
20260507222237 68 149 0.0 0.0 0.00 0.03 0.00 37 1016.7
20260507221617 68 30 0.0 0.0 0.00 0.04 0.00 37 1016.8
20260507220947 68 203 0.0 0.0 0.00 0.04 0.00 39 1016.8
20260507220327 68 68 0.0 1.0 0.00 0.04 0.00 40 1016.8
20260507215717 68 12 0.0 0.0 0.00 0.05 0.00 43 1016.7
20260507215102 67 80 0.0 0.0 0.00 0.05 0.00 42 1016.6
20260507214454 67 112 0.0 0.0 0.00 0.05 0.00 41 1016.6
20260507213826 68 87 0.0 3.0 0.00 0.05 0.00 39 1016.7